Regional Weather Roundup
Issued by NWS

Home | Current Version | Previous Version | Graphics & Text | Print | Product List | Glossary On
Versions: 1 2 3 4 5 6 7 8 9 10 11 12 13 14 15 16 17 18 19 20 21 22 23 24 25 26 27 28 29 30 31 32 33 34 35 36 37 38 39 40 41 42 43 44 45 46 47 48 49 50
000
ASUS45 KBOU 221807
RWRCO

WEATHER ROUNDUP FOR COLORADO
NATIONAL WEATHER SERVICE DENVER/BOULDER CO
1200 PM MDT FRI AUG 22 2014

NOTE: "FAIR" INDICATES FEW OR NO CLOUDS BELOW 12000 FEET WITH NO
SIGNIFICANT WEATHER AND/OR OBSTRUCTIONS TO VISIBILITY.

COZ001>005-013-030-031-221900-
...NORTHWEST COLORADO...

CITY           SKY/WX    TMP DP  RH WIND       PRES   REMARKS
CRAIG          CLOUDY    73  46  38 NE3       30.14F
HAYDEN         MOSUNNY   70  45  40 E12       30.16F
MEEKER         PTSUNNY   72  46  39 S13       30.15F
MOUNT WERNER   NOT AVBL
STEAMBOAT SPGS MOSUNNY   68  45  44 SE5       30.19F
WALDEN         PTSUNNY   61  43  51 SE9       30.28F
$$

COZ006>008-011-221900-
...WEST CENTRAL VALLEYS...

CITY           SKY/WX    TMP DP  RH WIND       PRES   REMARKS
GRAND JUNCTION PTSUNNY   77  50  38 SE12G17   30.09F
MONTROSE       CLOUDY    67  54  63 VRB3      30.19F
EAGLE          CLOUDY    63  50  63 SW3       30.24F
RIFLE          CLOUDY    70  49  47 NE8       30.13F
DELTA          RAIN      74  51  44 E7        30.15F
NUCLA          CLOUDY    70  48  46 CALM      30.21F
$$

COZ017>023-064>068-221900-
...SOUTHWEST COLORADO...

CITY           SKY/WX    TMP DP  RH WIND       PRES   REMARKS
DURANGO        CLOUDY    64  50  60 SE15      30.27F
CORTEZ         PTSUNNY   70  53  54 VRB6      30.20F
PAGOSA SPRINGS CLOUDY    57  48  71 CALM      30.34F
TELLURIDE      CLOUDY    59  43  55 SE13G21   30.35F
WOLF CREEK PAS NOT AVBL
$$

COZ009-010-012-014-032>034-037-058>063-221900-
...CENTRAL COLORADO...

CITY           SKY/WX    TMP DP  RH WIND       PRES   REMARKS
ASPEN          CLOUDY    60  48  64 VRB3      30.27F
BUENA VISTA    CLOUDY    64  41  43 S12G17    30.32R
COPPER MTN     CLOUDY    54  37  54 S22G28    30.54S
BERTHOUD PASS  CLOUDY    41  39  93 SE18      30.58F
COTTONWOOD PAS DRIZZLE   57  43  58 SE8       30.43S
GUNNISON       CLOUDY    55  46  71 N6        30.33F
KREMMLING      CLOUDY    61  46  59 CALM      30.27F
LEADVILLE      LGT RAIN  56  39  53 S15       30.39F
MONARCH PASS   LGT RAIN  41  39  93 S15G21    30.66F VSB<1/4
SALIDA         CLOUDY    66  44  45 S13G22    30.37S
SUNLIGHT       CLOUDY    54  48  82 CALM      30.47S
WILKERSON PASS NOT AVBL
$$

COZ069>075-221900-
...SAN LUIS VALLEY/SANGRE DE CRISTO MOUNTAINS...

CITY           SKY/WX    TMP DP  RH WIND       PRES   REMARKS
ALAMOSA        LGT RAIN  56  53  90 SE12      30.34S
LA VETA PASS   NOT AVBL
SAGUACHE       LGT RAIN  55  48  76 S12       30.36S
$$

COZ035-036-038>040-221900-
...NORTHERN COLORADO FRONT RANGE...

CITY           SKY/WX    TMP DP  RH WIND       PRES   REMARKS
DENVER INTL AP CLOUDY    70  54  56 S6        30.16F
DMNS CITY PARK   N/A     71  53  53 E5        30.14F
AURORA         DRIZZLE   68  55  62 S2        30.18F
FRONT RANGE AP NOT AVBL
ERIE MUNI ARPT CLOUDY    70  57  63 CALM      30.15S
BOULDER MUN AP CLOUDY    70  54  56 CALM      30.15F
CENTENNIAL     LGT RAIN  67  54  63 CALM      30.19F
BROOMFIELD     CLOUDY    68  55  64 CALM      30.18F
FORT COLLINS   CLOUDY    72  57  60 S7        30.14F
LONGMONT       CLOUDY    73  57  57 SE3       30.15F
$$

COZ041-046-047-076>085-087-088-221900-
...PIKES PEAK/PALMER DIVIDE AND SOUTHERN FOOTHILLS...

CITY           SKY/WX    TMP DP  RH WIND       PRES   REMARKS
COLO. SPRINGS  CLOUDY    72  53  51 E7        30.22S
A. F. ACADEMY  NOT AVBL
ELLICOTT       PTSUNNY   71  56  58 E7        30.20S
FALCON         PTSUNNY   69  53  55 E5        30.27S
FORT CARSON    DRIZZLE   72  54  53 S5        30.20R
LIMON          CLOUDY    72  57  59 NE9       30.17S
MONUMENT HILL  CLOUDY    64  52  63 CALM      30.25F
TRINIDAD       PTSUNNY   76  52  43 N8        30.17S
$$

COZ042>045-048>051-090-091-221900-
...NORTHEAST COLORADO...

CITY           SKY/WX    TMP DP  RH WIND       PRES   REMARKS
GREELEY ARPT   CLOUDY    72  55  56 S6        30.14S
AKRON          PTSUNNY   69  60  73 N9        30.14S THUNDER
BURLINGTON     MOSUNNY   83  57  41 NE22G30   30.08F
WRAY             N/A     81  55  41 N14G21    30.07S
STERLING       CLOUDY    66  64  94 CALM      30.11R
HOLYOKE        NOT AVBL
FORT MORGAN    CLOUDY    65  60  83 E8        30.14S
$$

COZ086-089-092>099-221900-
...SOUTHEAST COLORADO...

CITY           SKY/WX    TMP DP  RH WIND       PRES   REMARKS
PUEBLO         CLOUDY    79  55  43 VRB5      30.11S
LA JUNTA       CLOUDY    85  58  39 NE9       30.06F
LAMAR          PTSUNNY   83  61  47 E7        30.01S
SPRINGFIELD      N/A     87  56  34 N9        30.05S
$$


USA.gov is the U.S. government's official web portal to all federal, state and local government web resources and services.